Terminal Aerodrome Forecast
Issued by NWS King Salmon, AK

Home | Current Version | Previous Version | Text Only | Print | Product List | Glossary On
Versions: 1 2 3 4 5 6 7 8 9 10 11 12 13 14 15 16 17 18 19 20 21 22 23 24 25 26 27 28 29 30 31 32 33 34 35 36 37 38 39 40 41 42 43 44 45
000
FTAK31 PANC 302334
TAFAKN
TAF
PAKN 302334Z 3100/3124 30012G18KT P6SM SCT050 BKN070 BKN200
     FM310500 30009KT P6SM SCT070 BKN200
     FM311300 32009KT P6SM SCT200=

USA.gov is the U.S. government's official web portal to all federal, state and local government web resources and services.